User: anonymous   Login
Location: Unspecified
(0.0000°N, 0.0000°E)
Time: 14:47:21
(UTC+00:00)
Language:

CAPE 1 - Orbit

View from above orbital plane
View from above orbital plane
View from above satellite
View from above satellite

Ground track
Ground track

The orbit data is extracted from the following two-line orbital elements,

1 31130U 07012P   17205.82275076 +.00000107 +00000-0 +32872-4 0  9994
2 31130 098.0826 153.6914 0097788 083.5229 277.7092 14.56153123544727
Epoch (UTC): 24 July 2017 19:44:45
Eccentricity: 0.0097788
inclination: 98.0826°
perigee height: 636 km
apogee height: 775 km
right ascension of ascending node: 153.6914°
argument of perigee: 83.5229°
revolutions per day: 14.56153123
mean anomaly at epoch: 277.7092°
orbit number at epoch: 54472

The dashed part of the orbit path shows where the satellite is in the earth's shadow,  

DLR